Location: Unspecified
(0.0000°N, 0.0000°E)
Time: 07:17:12
(UTC+00:00)

Vanguard 2 - Pass Details

Date: 17 September 2019
Orbit: 554 x 2937 km, 32.9° (Epoch: 14 October)

Event Time Altitude Azimuth Distance (km) Brightness Sun altitude
Rises 19:27:23 0° 215° (SW) 5,547 12.4 -23.2°
Reaches altitude 10° 19:33:06 10° 196° (SSW) 4,989 11.8 -24.6°
Maximum altitude 19:41:41 17° 160° (SSE) 4,904 11.4 -26.8°
Enters shadow 19:47:07 14° 140° (SE) 5,282 11.4 -28.1°
Drops below altitude 10° 19:51:24 10° 126° (SE) 5,747 - -29.2°
Sets 19:58:51 0° 108° (ESE) 6,768 - -31.1°
